Gwinner, ND

3:01 PM CST on November 16, 2019 (GMT -0600)
Gwinner-melroe

Weather History for KGWR - October, 2019

Change the Weather History Date:

Wednesday, October 23, 2019

  Actual Average (WUND) Record (WUND)
Temperature  
Mean Temperature 34 °F -  
Max Temperature 39 °F - - (-1)
Min Temperature 28 °F - - (-1)
Degree Days  
Heating Degree Days 32    
Moisture  
Dew Point 29 °F    
Average Humidity 87    
Maximum Humidity 100    
Minimum Humidity 61    
Precipitation  
Precipitation 0.00 in - - ()
Sea Level Pressure  
Sea Level Pressure 29.98 in    
Wind  
Wind Speed 10 mph (NW)    
Max Wind Speed 16 mph    
Max Gust Speed 24 mph    
Visibility 10 miles    
Events      
Averages and records for this station are not official NWS values.
T = Trace of Precipitation, MM = Missing Value Source: NWS Daily Summary

Daily Weather History Graph

Daily Weather History Graph

Search for Another Location

Airport or City:

Astronomy

Oct. 23, 2019 Rise Set
Actual Time 7:58 AM CDT 6:30 PM CDT
Civil Twilight 7:27 AM CDT 7:01 PM CDT
Nautical Twilight 6:52 AM CDT 7:36 PM CDT
Astronomical Twilight 6:18 AM CDT 8:10 PM CDT
Moon 1:53 AM CDT (10/23) 4:44 PM CDT (10/23)
Length of Visible Light 11h 33m
Length of Day
10h 32m
Waning Crescent, 26% of the Moon is Illuminated
Oct 23
Waning Crescent
Oct 27
New
Nov 4
First Quarter
Nov 12
Full
Nov 19
Last Quarter

Hourly Weather History & Observations

Time (CDT) Temp. Windchill Dew Point Humidity Pressure Visibility Wind Dir Wind Speed Gust Speed Precip Events Conditions
12:15 AM 33.8 °F 26.4 °F 30.2 °F 87% 29.77 in 10.0 mi NW 9.2 mph - N/A   Clear
12:35 AM 32.0 °F 24.8 °F 30.2 °F 93% 29.76 in 10.0 mi NW 8.1 mph - N/A   Clear
12:55 AM 32.0 °F 24.8 °F 30.2 °F 93% 29.76 in 10.0 mi NW 8.1 mph - N/A   Clear
1:15 AM 30.2 °F 23.4 °F 28.4 °F 93% 29.76 in 10.0 mi WNW 6.9 mph - N/A   Clear
1:55 AM 28.4 °F 22.2 °F 28.4 °F 100% 29.77 in 10.0 mi West 5.8 mph - N/A   Clear
2:15 AM 28.4 °F 20.4 °F 28.4 °F 100% 29.78 in 10.0 mi West 8.1 mph - N/A   Clear
2:35 AM 30.2 °F 21.9 °F 30.2 °F 100% 29.78 in 10.0 mi NW 9.2 mph - N/A   Clear
2:55 AM 30.2 °F 21.9 °F 28.4 °F 93% 29.79 in 10.0 mi NW 9.2 mph - N/A   Clear
3:15 AM 32.0 °F 24.2 °F 28.4 °F 87% 29.80 in 10.0 mi NW 9.2 mph 15.0 mph N/A   Clear
3:35 AM 30.2 °F 21.3 °F 28.4 °F 93% 29.80 in 10.0 mi NW 10.4 mph - N/A   Clear
3:55 AM 30.2 °F 22.6 °F 28.4 °F 93% 29.80 in 10.0 mi NNW 8.1 mph - N/A   Clear
4:15 AM 30.2 °F 21.3 °F 28.4 °F 93% 29.81 in 10.0 mi NW 10.4 mph - N/A   Clear
4:35 AM 30.2 °F 22.6 °F 28.4 °F 93% 29.81 in 10.0 mi NW 8.1 mph - N/A   Clear
4:55 AM 28.4 °F 19.7 °F 28.4 °F 100% 29.81 in 10.0 mi NW 9.2 mph - N/A   Clear
5:15 AM 28.4 °F 19.7 °F 28.4 °F 100% 29.82 in 10.0 mi NW 9.2 mph - N/A   Clear
5:35 AM 28.4 °F 20.4 °F 28.4 °F 100% 29.82 in 10.0 mi NNW 8.1 mph - N/A   Clear
5:55 AM 28.4 °F 19.7 °F 28.4 °F 100% 29.82 in 10.0 mi NNW 9.2 mph - N/A   Clear
6:15 AM 28.4 °F 21.2 °F 28.4 °F 100% 29.83 in 10.0 mi NNW 6.9 mph - N/A   Clear
6:35 AM 28.4 °F 20.4 °F 28.4 °F 100% 29.85 in 10.0 mi NW 8.1 mph - N/A   Clear
6:55 AM 30.2 °F 22.6 °F 28.4 °F 93% 29.86 in 10.0 mi NW 8.1 mph - N/A   Clear
7:15 AM 28.4 °F 21.2 °F 28.4 °F 100% 29.86 in 10.0 mi NW 6.9 mph - N/A   Clear
7:35 AM 30.2 °F 22.6 °F 28.4 °F 93% 29.86 in 10.0 mi NW 8.1 mph - N/A   Clear
7:55 AM 28.4 °F 21.2 °F 28.4 °F 100% 29.86 in 10.0 mi NNW 6.9 mph - N/A   Clear
8:15 AM 28.4 °F 20.4 °F 28.4 °F 100% 29.87 in 10.0 mi NNW 8.1 mph - N/A   Clear
8:35 AM 30.2 °F 21.9 °F 28.4 °F 93% 29.88 in 10.0 mi NNW 9.2 mph - N/A   Clear
8:55 AM 30.2 °F 21.3 °F 30.2 °F 100% 29.89 in 10.0 mi NNW 10.4 mph - N/A   Clear
9:15 AM 32.0 °F 23.6 °F 30.2 °F 93% 29.90 in 10.0 mi NNW 10.4 mph - N/A   Clear
9:35 AM 32.0 °F 23.0 °F 30.2 °F 93% 29.92 in 10.0 mi NNW 11.5 mph - N/A   Mostly Cloudy
9:55 AM 32.0 °F 22.5 °F 30.2 °F 93% 29.93 in 10.0 mi North 12.7 mph - N/A   Overcast
10:15 AM 32.0 °F 22.1 °F 30.2 °F 93% 29.94 in 10.0 mi North 13.8 mph 21.9 mph N/A   Overcast
10:35 AM 33.8 °F 25.8 °F 30.2 °F 87% 29.95 in 10.0 mi NNW 10.4 mph 19.6 mph N/A   Overcast
10:55 AM 33.8 °F 24.8 °F 30.2 °F 87% 29.96 in 10.0 mi North 12.7 mph 18.4 mph N/A   Overcast
11:15 AM 33.8 °F 24.8 °F 30.2 °F 87% 29.97 in 10.0 mi NW 12.7 mph - N/A   Overcast
11:35 AM 33.8 °F 25.3 °F 32.0 °F 93% 29.98 in 10.0 mi NNW 11.5 mph - N/A   Overcast
11:55 AM 33.8 °F 23.9 °F 32.0 °F 93% 29.98 in 10.0 mi NNW 15.0 mph - N/A   Overcast
12:15 PM 33.8 °F 23.9 °F 32.0 °F 93% 29.99 in 10.0 mi NNW 15.0 mph - N/A   Overcast
12:35 PM 33.8 °F 25.8 °F 32.0 °F 93% 30.00 in 10.0 mi NNW 10.4 mph 19.6 mph N/A   Overcast
12:55 PM 33.8 °F 24.8 °F 32.0 °F 93% 30.00 in 10.0 mi NNW 12.7 mph - N/A   Overcast
1:15 PM 33.8 °F 25.8 °F 32.0 °F 93% 30.00 in 10.0 mi North 10.4 mph 17.3 mph N/A   Overcast
1:35 PM 35.6 °F 27.5 °F 32.0 °F 87% 30.00 in 10.0 mi NNW 11.5 mph 18.4 mph N/A   Overcast
1:55 PM 35.6 °F 27.1 °F 32.0 °F 87% 30.01 in 10.0 mi North 12.7 mph 20.7 mph N/A   Overcast
2:15 PM 35.6 °F 26.6 °F 32.0 °F 87% 30.01 in 10.0 mi NNW 13.8 mph - N/A   Overcast
2:35 PM 35.6 °F 26.6 °F 32.0 °F 87% 30.02 in 10.0 mi North 13.8 mph - N/A   Overcast
2:55 PM 37.4 °F 28.2 °F 32.0 °F 81% 30.02 in 10.0 mi NNW 16.1 mph - N/A   Overcast
3:15 PM 37.4 °F 28.9 °F 30.2 °F 75% 30.03 in 10.0 mi NNW 13.8 mph 24.2 mph N/A   Overcast
3:35 PM 37.4 °F 29.8 °F 32.0 °F 81% 30.03 in 10.0 mi North 11.5 mph 20.7 mph N/A   Overcast
3:55 PM 39.2 °F 30.8 °F 32.0 °F 75% 30.04 in 10.0 mi NNW 15.0 mph - N/A   Overcast
4:15 PM 39.2 °F 30.8 °F 30.2 °F 70% 30.05 in 10.0 mi North 15.0 mph - N/A   Overcast
4:35 PM 39.2 °F 32.0 °F 30.2 °F 70% 30.06 in 10.0 mi NNW 11.5 mph 19.6 mph N/A   Overcast
4:55 PM 39.2 °F 32.5 °F 30.2 °F 70% 30.07 in 10.0 mi NNW 10.4 mph 20.7 mph N/A   Overcast
5:15 PM 39.2 °F 31.2 °F 28.4 °F 65% 30.08 in 10.0 mi NNW 13.8 mph - N/A   Overcast
5:35 PM 39.2 °F 32.0 °F 28.4 °F 65% 30.09 in 10.0 mi NNW 11.5 mph 19.6 mph N/A   Overcast
5:55 PM 39.2 °F 31.2 °F 26.6 °F 61% 30.10 in 10.0 mi NNW 13.8 mph 19.6 mph N/A   Mostly Cloudy
6:15 PM 35.6 °F 28.6 °F 26.6 °F 70% 30.11 in 10.0 mi NNW 9.2 mph 15.0 mph N/A   Scattered Clouds
6:35 PM 35.6 °F 29.9 °F 28.4 °F 75% 30.13 in 10.0 mi NNW 6.9 mph - N/A   Mostly Cloudy
6:55 PM 35.6 °F 28.6 °F 28.4 °F 75% 30.14 in 10.0 mi NNW 9.2 mph - N/A   Overcast
7:15 PM 35.6 °F 27.5 °F 26.6 °F 70% 30.15 in 10.0 mi NW 11.5 mph - N/A   Overcast
7:35 PM 37.4 °F 30.3 °F 28.4 °F 70% 30.16 in 10.0 mi NW 10.4 mph - N/A   Overcast
7:55 PM 37.4 °F 30.3 °F 28.4 °F 70% 30.18 in 10.0 mi NNW 10.4 mph - N/A   Overcast
8:15 PM 37.4 °F 30.8 °F 26.6 °F 65% 30.19 in 10.0 mi NNW 9.2 mph 16.1 mph N/A   Overcast
8:35 PM 35.6 °F 29.2 °F 26.6 °F 70% 30.20 in 10.0 mi NNW 8.1 mph 13.8 mph N/A   Overcast
8:55 PM 35.6 °F 28.6 °F 26.6 °F 70% 30.20 in 10.0 mi NNW 9.2 mph - N/A   Overcast
9:15 PM 35.6 °F 29.9 °F 26.6 °F 70% 30.20 in 10.0 mi NNW 6.9 mph - N/A   Overcast
9:35 PM 33.8 °F 27.7 °F 24.8 °F 70% 30.20 in 10.0 mi NW 6.9 mph - N/A   Scattered Clouds
10:15 PM 30.2 °F 24.3 °F 28.4 °F 93% 30.21 in 10.0 mi West 5.8 mph - N/A   Clear
10:35 PM 30.2 °F 22.6 °F 28.4 °F 93% 30.22 in 10.0 mi West 8.1 mph - N/A   Clear
10:55 PM 30.2 °F 22.6 °F 28.4 °F 93% 30.22 in 10.0 mi West 8.1 mph - N/A   Mostly Cloudy
11:15 PM 30.2 °F 24.3 °F 28.4 °F 93% 30.22 in 10.0 mi West 5.8 mph - N/A   Overcast
11:35 PM 30.2 °F 22.6 °F 30.2 °F 100% 30.22 in 10.0 mi West 8.1 mph - N/A   Overcast
11:55 PM 32.0 °F 26.4 °F 30.2 °F 93% 30.22 in 10.0 mi West 5.8 mph - N/A   Overcast